Вернуться в каталог

THORAD AGENA D DEB

АктивенLEO
NORAD 4708·DEBRIS·🇺🇸 United States

Запущен Apr 8, 1970 с Vandenberg Space Force Base

Loading…

Ближайшие Пролёты (ближайшие 24 часа)

TLE

СвежийSource: Space-Track

Эпоха: Sep 14, 2026, 12:52 UTC

1  4708U 70025BW  26257.53670235  .00001190  00000-0  10004-2 0  9994
2  4708 100.0379 353.6420 0064369 239.0825 189.0089 13.89420510807633

Отслеживайте THORAD AGENA D DEB в реальном времени с AllMySat

Download on the App Store